Sigfox identifier Datetime Temperature Humidity SNR
003BBBD0 2018-10-09 08:55:15 21 39 20.2
003BBBD0 2018-10-09 07:50:29 21 39 20.1
003BBBD0 2018-10-09 06:45:41 21 39 20
003BBBD0 2018-10-09 05:40:54 21 38 20
003BBBD0 2018-10-09 04:36:05 21 38 19.8
003BBBD0 2018-10-09 01:21:36 21 38 19.2
003BBBD0 2018-10-09 00:16:47 21 37 18.9
003BBBD0 2018-10-08 23:11:58 21 37 19
003BBBD0 2018-10-08 22:07:07 21 37 19.1
003BBBD0 2018-10-08 21:02:20 21 37 19.1
003BBBD0 2018-10-08 19:57:29 21.1 37 18.9
003BBBD0 2018-10-08 18:52:38 21.1 37 19.1
003BBBD0 2018-10-08 17:47:49 21.1 36 16.1
003BBBD0 2018-10-08 16:42:56 21 36 16.2
003BBBD0 2018-10-08 15:38:03 21 36 15.9
003BBBD0 2018-10-08 14:33:13 20.9 35 15.8
003BBBD0 2018-10-08 12:23:34 20.8 35 15.8
003BBBD0 2018-10-08 11:18:47 20.6 33 16
003BBBD0 2018-10-08 10:13:58 20.6 33 16
003BBBD0 2018-10-08 09:09:10 20.4 33 16
003BBBD0 2018-10-08 08:04:22 20.4 34 15.7
003BBBD0 2018-10-08 06:59:33 20.4 34 15.2
003BBBD0 2018-10-08 05:54:42 20.4 35 14.8
003BBBD0 2018-10-08 04:49:55 20.4 35 15.3
003BBBD0 2018-10-08 03:45:11 20.4 35 15.9
003BBBD0 2018-10-08 02:40:19 20.4 36 15.9
003BBBD0 2018-10-08 01:35:31 20.4 36 15.8
003BBBD0 2018-10-08 00:30:41 20.5 36 16.1
003BBBD0 2018-10-07 23:25:50 20.6 37 16.3
003BBBD0 2018-10-07 22:21:00 20.6 37 16.7
003BBBD0 2018-10-07 21:16:11 20.6 38 17.2
003BBBD0 2018-10-07 20:11:17 20.6 38 17.2
003BBBD0 2018-10-07 19:06:32 20.6 38 17.2
003BBBD0 2018-10-07 18:01:40 20.6 38 17.6
003BBBD0 2018-10-07 16:56:47 20.6 38 17.6
003BBBD0 2018-10-07 15:51:49 20.6 38 17.5
003BBBD0 2018-10-07 14:46:52 20.6 38 17.3
003BBBD0 2018-10-07 13:41:57 20.6 38 17.5
003BBBD0 2018-10-07 12:37:05 20.6 38 17.5
003BBBD0 2018-10-07 11:32:15 20.6 38 17.7
003BBBD0 2018-10-07 10:27:30 20.6 38 17.6
003BBBD0 2018-10-07 09:22:36 20.6 38 17.7
003BBBD0 2018-10-07 08:17:44 20.6 39 17.6
003BBBD0 2018-10-07 07:12:51 20.6 39 19.9
003BBBD0 2018-10-07 06:08:03 20.6 39 19.9
003BBBD0 2018-10-07 05:03:08 20.6 39 19.9
003BBBD0 2018-10-07 03:58:16 20.6 39 20.1
003BBBD0 2018-10-07 02:53:27 20.6 39 20.1
003BBBD0 2018-10-07 01:48:34 20.8 39 20
003BBBD0 2018-10-07 00:43:46 20.7 39 19.8
003BBBD0 2018-10-06 23:38:52 20.8 39 19.9
003BBBD0 2018-10-06 22:34:02 20.8 39 20.1
003BBBD0 2018-10-06 21:29:12 20.8 39 20
003BBBD0 2018-10-06 20:24:19 20.8 39 19.9
003BBBD0 2018-10-06 19:19:30 20.8 39 19.7
003BBBD0 2018-10-06 18:14:38 20.8 39 19.4
003BBBD0 2018-10-06 17:09:45 20.8 40 19.4
003BBBD0 2018-10-06 16:04:54 20.8 40 19.4
003BBBD0 2018-10-06 15:00:06 20.8 40 19.2
003BBBD0 2018-10-06 13:55:14 20.8 40 19
003BBBD0 2018-10-06 12:50:25 20.8 40 19.2
003BBBD0 2018-10-06 11:45:30 20.8 40 19.2
003BBBD0 2018-10-06 10:40:37 20.8 40 19.1
003BBBD0 2018-10-06 09:35:48 20.8 40 19.2
003BBBD0 2018-10-06 08:31:01 20.8 40 19.1
003BBBD0 2018-10-06 07:26:12 20.8 40 19.2
003BBBD0 2018-10-06 06:21:21 20.8 41 19.3
003BBBD0 2018-10-06 05:16:29 21 41 19.5
003BBBD0 2018-10-06 04:11:39 21 41 17.1
003BBBD0 2018-10-06 03:06:50 21 42 17
003BBBD0 2018-10-06 02:02:01 21.1 42 17
003BBBD0 2018-10-06 00:57:11 21.1 42 16.6
003BBBD0 2018-10-05 23:52:18 21.2 42 16.9
003BBBD0 2018-10-05 22:47:27 21.2 43 16.9
003BBBD0 2018-10-05 21:42:35 21.3 43 16.9
003BBBD0 2018-10-05 20:37:43 21.4 43 16.9
003BBBD0 2018-10-05 19:32:52 21.4 43 16.7
003BBBD0 2018-10-05 18:28:03 21.6 43 16.6
003BBBD0 2018-10-05 17:23:10 21.7 43 16.8
003BBBD0 2018-10-05 16:18:19 21.7 43 16.9
003BBBD0 2018-10-05 14:08:27 21.7 41 17.1
003BBBD0 2018-10-05 11:58:36 21.3 38 17.3
003BBBD0 2018-10-05 08:43:42 20.8 34 17.4
003BBBD0 2018-10-05 07:38:44 20.6 33 17.5
003BBBD0 2018-10-05 06:33:51 20.6 33 17.7
003BBBD0 2018-10-05 05:28:52 20.6 33 17.7
003BBBD0 2018-10-05 04:23:57 20.6 33 17.4
003BBBD0 2018-10-05 03:19:02 20.8 33 17.7
003BBBD0 2018-10-05 02:14:09 20.8 34 17.6
003BBBD0 2018-10-05 01:09:11 20.8 34 17.5
003BBBD0 2018-10-05 00:04:19 21 34 17.6
003BBBD0 2018-10-04 22:59:22 21 34 16.9
003BBBD0 2018-10-04 21:54:22 21 34 15.1
003BBBD0 2018-10-04 20:49:25 21 35 14.8
003BBBD0 2018-10-04 19:44:25 21.1 35 15.9
003BBBD0 2018-10-04 18:39:21 21.1 36 17.4
003BBBD0 2018-10-04 17:34:19 21.1 37 19.7
003BBBD0 2018-10-04 16:29:16 20.6 42 0